Погода в Новоцарицыно

Россия / Омская область     54°39′48″N   71°56′21″E
темп.,
°C
ветер,
м/с
пор.,
м/с
влажн.,
%
обл.,
%
осадки,
мм/ч
давл.,
гПа
погр.,
м
13 мая, чт
чт1300:00+12с4952100 0.1 1023282
03:00+10ссз4957100 0.0 1023202
06:00+9ссз365498 0.0 1023131
09:00+14сз4738100 0.0 1023629
12:00+12юз2249100 0.0 1022104
15:00+20с2844100 0.0 10191068
18:00+13всв2269100 0.4 102056
21:00+14сз247994 0.1 102181
14 мая, пт
пт1400:00+12с34915 0.1 102350
03:00+11ссв33915 0.0 102444
06:00+10св34935 0.0 102658
09:00+15ссв34675 0.0 1027518
12:00+19с34405 0.0 10271246
15:00+21с3429100 0.0 10271534
18:00+22ссз24280 0.0 10261496
21:00+18юз11395 0.0 102611
15 мая, сб
сб1500:00+16ююз45424 0.0 102553
03:00+15юз494232 0.0 1024139
06:00+15зюз4125254 0.0 1023208
09:00+22зюз611369 0.1 1023495
12:00+27з79295 0.1 10211224
15:00+30зсз88255 0.0 10193022
18:00+30зсз68255 0.0 10183310
21:00+23з33395 0.3 101717
16 мая, вс
вс1600:00+18з61267100 2.7 1020353
03:00+17з497144 0.0 1017186
06:00+16сз3876100 0.1 1019179
09:00+21сз46545 0.1 1019451
12:00+25ссз34425 0.1 10181199
15:00+28с443445 0.0 10182476
18:00+27с453238 0.0 10182467
21:00+22с224764 0.0 101811
17 мая, пн
пн1700:00+20з115019 0.0 101811
03:00+19юз335436 0.0 101829
06:00+18зюз475969 0.0 1018111
09:00+24зюз584113 0.0 1018431
12:00+29з57295 0.0 10161268
15:00+32з67205 0.0 10153806
18:00+31з682317 0.0 10133401
21:00+23с484618 0.0 1013198